Location: Lanoux
(43.1180°N, 1.4255°E)
Time: 22:44:54
(UTC+00:00)

Cosmos 1898 Rocket - Pass Details

Date: 13 December 2025
Orbit: 749 x 779 km, 74.0° (Epoch: 19 January)

Event Time Altitude Azimuth Distance (km) Brightness Sun altitude
Rises 17:05:17 0° 169° (S) 3,180 6.9 -8.2°
Reaches altitude 10° 17:07:53 10° 159° (SSE) 2,261 6.0 -8.6°
Maximum altitude 17:12:15 29° 100° (E) 1,355 4.4 -9.4°
Drops below altitude 10° 17:16:39 10° 41° (NE) 2,281 5.4 -10.1°
Enters shadow 17:16:41 10° 41° (NE) 2,296 5.4 -10.1°
